Location: Observatoire de Paris
(48.8363°N, 2.3365°E)
Time: 17:40:47
(UTC+01:00)

A-11 Canister half - Visible Passes

Search period start: 28 July 2021 00:00
Search period end: 07 August 2021 00:00
Orbit: 1513 x 1687 km, 47.2° (Epoch: 28 July)

Date Brightness Start Highest point End Pass type
(mag) Time Alt. Az. Time Alt. Az. Time Alt. Az.
28 Jul 9.7 01:59:59 10° W 02:08:18 30° SW 02:10:07 28° SSW visible
28 Jul 9.2 21:26:35 10° W 21:36:41 83° S 21:46:55 10° E visible
28 Jul 9.1 23:31:35 10° WNW 23:41:35 66° SSW 23:49:01 21° SE visible
29 Jul 9.7 01:36:57 10° WNW 01:45:27 32° SW 01:47:07 30° SSW visible
29 Jul 9.2 21:03:40 10° W 21:13:43 83° S 21:23:57 10° E visible
29 Jul 9.1 23:08:38 10° W 23:18:39 68° SSW 23:26:14 20° SE visible
30 Jul 9.7 01:13:56 10° WNW 01:22:36 33° SW 01:24:21 32° SSW visible
30 Jul 9.1 22:45:41 10° W 22:55:43 70° SSW 23:03:38 19° ESE visible
31 Jul 9.6 00:50:55 10° WNW 00:59:43 35° SW 01:01:46 33° SSW visible
31 Jul 9.2 22:22:44 10° W 22:32:46 71° SSW 22:41:10 17° ESE visible
01 Aug 9.6 00:27:54 10° WNW 00:36:52 37° SW 00:39:19 33° SSW visible
01 Aug 9.2 21:59:48 10° W 22:09:49 73° SSW 22:18:48 14° ESE visible
02 Aug 9.6 00:04:55 10° WNW 00:13:59 39° SW 00:16:57 33° S visible
02 Aug 10.7 02:14:17 10° WSW 02:15:05 11° WSW 02:15:05 11° WSW visible
02 Aug 9.2 21:36:51 10° W 21:46:52 74° SSW 21:56:31 12° ESE visible
02 Aug 9.6 23:41:57 10° WNW 23:51:06 41° SW 23:54:40 32° S visible
03 Aug 10.7 01:50:23 10° W 01:52:49 12° WSW 01:52:49 12° WSW visible
03 Aug 9.2 21:13:55 10° W 21:23:55 76° SSW 21:34:05 10° ESE visible
03 Aug 9.6 23:18:57 10° WNW 23:28:13 43° SW 23:32:27 30° S visible
04 Aug 10.6 01:26:48 10° W 01:30:36 13° WSW 01:30:36 13° WSW visible
04 Aug 9.3 20:50:59 10° W 21:00:58 77° SSW 21:11:09 10° ESE visible
04 Aug 9.6 22:56:00 10° WNW 23:05:20 45° SW 23:10:18 28° SSE visible
05 Aug 10.6 01:03:22 10° W 01:08:18 15° WSW 01:08:28 15° SW visible
05 Aug 9.6 22:33:01 10° WNW 22:42:26 47° SW 22:48:13 25° SSE visible
06 Aug 10.5 00:40:02 10° W 00:45:30 16° SW 00:46:22 16° SW visible
06 Aug 9.6 22:10:05 10° WNW 22:19:33 48° SW 22:26:10 21° SSE visible
